Memphis, TN

4:46 PM CDT on July 20, 2017 (GMT -0500)
Memphis International

Weather History for KMEM - July, 2013

Change the Weather History Date:

Tuesday, July 16, 2013

  Actual Average Record
Temperature  
Mean Temperature 85 °F 83 °F  
Max Temperature 94 °F 92 °F 105 °F (1980)
Min Temperature 76 °F 74 °F 60 °F (1967)
Degree Days  
Heating Degree Days 0 0  
Month to date heating degree days 0 0  
Since 1 June heating degree days 0 0  
Since 1 July heating degree days 0 0  
Cooling Degree Days 20 18  
Month to date cooling degree days 249 284  
Year to date cooling degree days 984 1043  
Since 1 June cooling degree days 699 722  
Growing Degree Days 34 (Base 50)    
Moisture  
Dew Point 70 °F    
Average Humidity 63    
Maximum Humidity 82    
Minimum Humidity 44    
Precipitation  
Precipitation 0.00 in 0.16 in 1.99 in (1929)
Month to date precipitation 0.13 2.31  
Year to date precipitation 40.18 30.22  
Snow  
Snow 0.00 in 0.00 in - ()
Month to date snowfall 0.0 0.0  
Since 1 June snowfall 0.0 0.0  
Since 1 July snowfall 0.0 0.0  
Snow Depth 0.00 in    
Sea Level Pressure  
Sea Level Pressure 30.22 in    
Wind  
Wind Speed 7 mph (ESE)    
Max Wind Speed 15 mph    
Max Gust Speed 17 mph    
Visibility 10 miles    
Events      
T = Trace of Precipitation, MM = Missing Value Source: NWS Daily Summary

Daily Weather History Graph

Daily Weather History Graph

Search for Another Location

Airport or City:

Trip Planner

Search our weather history database for the weather conditions in past years. The results will help you decide how hot, cold, wet, or windy it might be!

Date:

Astronomy

Jul. 16, 2013 Rise Set
Actual Time 5:58 AM CDT 8:13 PM CDT
Civil Twilight 5:29 AM CDT 8:42 PM CDT
Nautical Twilight 4:53 AM CDT 9:17 PM CDT
Astronomical Twilight 4:15 AM CDT 9:56 PM CDT
Moon 2:00 PM CDT (7/16) 12:20 AM CDT (7/16)
Length of Visible Light 15h 13m
Length of Day
14h 15m
First Quarter, 56% of the Moon is Illuminated
Jul 16
First Quarter
Jul 22
Full
Jul 29
Last Quarter
Aug 6
New
Aug 14
First Quarter

Hourly Weather History & Observations

Time (CDT) Temp. Heat Index Dew Point Humidity Pressure Visibility Wind Dir Wind Speed Gust Speed Precip Events Conditions
12:54 AM 79.0 °F - 72.0 °F 79% 30.19 in 10.0 mi East 6.9 mph - N/A   Partly Cloudy
1:54 AM 78.1 °F - 71.1 °F 79% 30.18 in 10.0 mi East 3.5 mph - N/A   Partly Cloudy
2:54 AM 79.0 °F - 71.1 °F 77% 30.18 in 10.0 mi ESE 6.9 mph - N/A   Partly Cloudy
3:54 AM 78.1 °F - 70.0 °F 76% 30.19 in 10.0 mi SE 6.9 mph - N/A   Clear
4:54 AM 77.0 °F - 70.0 °F 79% 30.19 in 10.0 mi SE 6.9 mph - N/A   Clear
5:54 AM 75.9 °F - 70.0 °F 82% 30.21 in 10.0 mi East 5.8 mph - N/A   Partly Cloudy
6:54 AM 77.0 °F - 70.0 °F 79% 30.23 in 10.0 mi SE 4.6 mph - N/A   Partly Cloudy
7:54 AM 79.0 °F - 70.0 °F 74% 30.25 in 10.0 mi SE 8.1 mph - N/A   Partly Cloudy
8:54 AM 81.0 °F 84.9 °F 71.1 °F 72% 30.26 in 10.0 mi South 9.2 mph - N/A   Partly Cloudy
9:54 AM 84.0 °F 89.0 °F 71.1 °F 65% 30.26 in 10.0 mi East 6.9 mph - N/A   Scattered Clouds
10:54 AM 87.1 °F 92.8 °F 71.1 °F 59% 30.26 in 10.0 mi ENE 6.9 mph - N/A   Scattered Clouds
11:45 AM 87.8 °F 92.6 °F 69.8 °F 55% 30.26 in 10.0 mi ESE 8.1 mph - N/A   Mostly Cloudy
11:54 AM 87.1 °F 92.0 °F 70.0 °F 57% 30.25 in 10.0 mi Variable 4.6 mph - N/A   Scattered Clouds
12:54 PM 91.0 °F 95.2 °F 68.0 °F 47% 30.24 in 10.0 mi SE 12.7 mph 16.1 mph N/A   Mostly Cloudy
1:54 PM 91.0 °F 95.6 °F 69.1 °F 48% 30.23 in 10.0 mi SE 9.2 mph - N/A   Mostly Cloudy
2:54 PM 91.9 °F 96.9 °F 69.1 °F 47% 30.22 in 10.0 mi SSE 8.1 mph - N/A   Scattered Clouds
3:54 PM 93.0 °F 97.4 °F 68.0 °F 44% 30.20 in 10.0 mi SE 11.5 mph 17.3 mph N/A   Scattered Clouds
4:54 PM 93.0 °F 97.4 °F 68.0 °F 44% 30.19 in 10.0 mi ESE 11.5 mph - N/A   Mostly Cloudy
5:54 PM 91.9 °F 95.9 °F 68.0 °F 45% 30.18 in 10.0 mi SE 9.2 mph - N/A   Scattered Clouds
6:54 PM 91.0 °F 95.2 °F 68.0 °F 47% 30.19 in 10.0 mi ESE 10.4 mph - N/A   Mostly Cloudy
7:54 PM 87.1 °F 91.3 °F 69.1 °F 55% 30.21 in 10.0 mi SE 4.6 mph - N/A   Scattered Clouds
8:54 PM 86.0 °F 90.1 °F 69.1 °F 57% 30.22 in 10.0 mi ESE 8.1 mph - N/A   Scattered Clouds
9:54 PM 84.9 °F 89.4 °F 70.0 °F 61% 30.24 in 10.0 mi East 4.6 mph - N/A   Partly Cloudy
10:54 PM 84.0 °F 88.4 °F 70.0 °F 63% 30.25 in 10.0 mi ESE 5.8 mph - N/A   Partly Cloudy
11:54 PM 84.9 °F 89.4 °F 70.0 °F 61% 30.26 in 10.0 mi East 4.6 mph - N/A   Partly Cloudy